Year,Month,Day,Hour,Minute,Value (Times are PST for insolation in W/m^2)
2012,03,03,00,00,0.00
2012,03,03,00,01,0.00
2012,03,03,00,02,0.00
2012,03,03,00,03,0.00
2012,03,03,00,04,0.00
2012,03,03,00,05,0.00
2012,03,03,00,06,0.00
2012,03,03,00,07,0.00
2012,03,03,00,08,0.00
2012,03,03,00,09,0.00
2012,03,03,00,10,0.00
2012,03,03,00,11,0.00
2012,03,03,00,12,0.00
2012,03,03,00,13,0.00
2012,03,03,00,14,0.00
2012,03,03,00,15,0.00
2012,03,03,00,16,0.00
2012,03,03,00,17,0.00
2012,03,03,00,18,0.00
2012,03,03,00,19,0.00
2012,03,03,00,20,0.00
2012,03,03,00,21,0.00
2012,03,03,00,22,0.00
2012,03,03,00,23,0.00
2012,03,03,00,24,0.00
2012,03,03,00,25,0.00
2012,03,03,00,26,0.00
2012,03,03,00,27,0.00
2012,03,03,00,28,0.00
2012,03,03,00,29,0.00
2012,03,03,00,30,0.00
2012,03,03,00,31,0.00
2012,03,03,00,32,0.00
2012,03,03,00,33,0.00
2012,03,03,00,34,0.00
2012,03,03,00,35,0.00
2012,03,03,00,36,0.00
2012,03,03,00,37,0.00
2012,03,03,00,38,0.00
2012,03,03,00,39,0.00
2012,03,03,00,40,0.00
2012,03,03,00,41,0.00
2012,03,03,00,42,0.00
2012,03,03,00,43,0.00
2012,03,03,00,44,0.00
2012,03,03,00,45,0.00
2012,03,03,00,46,0.00
2012,03,03,00,47,0.00
2012,03,03,00,48,0.00
2012,03,03,00,49,0.00
2012,03,03,00,50,0.00
2012,03,03,00,51,0.00
2012,03,03,00,52,0.00
2012,03,03,00,53,0.00
2012,03,03,00,54,0.00
2012,03,03,00,55,0.00
2012,03,03,00,56,0.00
2012,03,03,00,57,0.00
2012,03,03,00,58,0.00
2012,03,03,00,59,0.00
2012,03,03,01,00,0.00
2012,03,03,01,01,0.00
2012,03,03,01,02,0.00
2012,03,03,01,03,0.00
2012,03,03,01,04,0.00
2012,03,03,01,05,0.00
2012,03,03,01,06,0.00
2012,03,03,01,07,0.00
2012,03,03,01,08,0.00
2012,03,03,01,09,0.00
2012,03,03,01,10,0.00
2012,03,03,01,11,0.00
2012,03,03,01,12,0.00
2012,03,03,01,13,0.00
2012,03,03,01,14,0.00
2012,03,03,01,15,0.00
2012,03,03,01,16,0.00
2012,03,03,01,17,0.00
2012,03,03,01,18,0.00
2012,03,03,01,19,0.00
2012,03,03,01,20,0.00
2012,03,03,01,21,0.00
2012,03,03,01,22,0.00
2012,03,03,01,23,0.00
2012,03,03,01,24,0.00
2012,03,03,01,25,0.00
2012,03,03,01,26,0.00
2012,03,03,01,27,0.00
2012,03,03,01,28,0.00
2012,03,03,01,29,0.00
2012,03,03,01,30,0.00
2012,03,03,01,31,0.00
2012,03,03,01,32,0.00
2012,03,03,01,33,0.00
2012,03,03,01,34,0.00
2012,03,03,01,35,0.00
2012,03,03,01,36,0.00
2012,03,03,01,37,0.00
2012,03,03,01,38,0.00
2012,03,03,01,39,0.00
2012,03,03,01,40,0.00
2012,03,03,01,41,0.00
2012,03,03,01,42,0.00
2012,03,03,01,43,0.00
2012,03,03,01,44,0.00
2012,03,03,01,45,0.00
2012,03,03,01,46,0.00
2012,03,03,01,47,0.00
2012,03,03,01,48,0.00
2012,03,03,01,49,0.00
2012,03,03,01,50,0.00
2012,03,03,01,51,0.00
2012,03,03,01,52,0.00
2012,03,03,01,53,0.00
2012,03,03,01,54,0.00
2012,03,03,01,55,0.00
2012,03,03,01,56,0.00
2012,03,03,01,57,0.00
2012,03,03,01,58,0.00
2012,03,03,01,59,0.00
2012,03,03,02,00,0.00
2012,03,03,02,01,0.00
2012,03,03,02,02,0.00
2012,03,03,02,03,0.00
2012,03,03,02,04,0.00
2012,03,03,02,05,0.00
2012,03,03,02,06,0.00
2012,03,03,02,07,0.00
2012,03,03,02,08,0.00
2012,03,03,02,09,0.00
2012,03,03,02,10,0.00
2012,03,03,02,11,0.00
2012,03,03,02,12,0.00
2012,03,03,02,13,0.00
2012,03,03,02,14,0.00
2012,03,03,02,15,0.00
2012,03,03,02,16,0.00
2012,03,03,02,17,0.00
2012,03,03,02,18,0.00
2012,03,03,02,19,0.00
2012,03,03,02,20,0.00
2012,03,03,02,21,0.00
2012,03,03,02,22,0.00
2012,03,03,02,23,0.00
2012,03,03,02,24,0.00
2012,03,03,02,25,0.00
2012,03,03,02,26,0.00
2012,03,03,02,27,0.00
2012,03,03,02,28,0.00
2012,03,03,02,29,0.00
2012,03,03,02,30,0.00
2012,03,03,02,31,0.00
2012,03,03,02,32,0.00
2012,03,03,02,33,0.00
2012,03,03,02,34,0.00
2012,03,03,02,35,0.00
2012,03,03,02,36,0.00
2012,03,03,02,37,0.00
2012,03,03,02,38,0.00
2012,03,03,02,39,0.00
2012,03,03,02,40,0.00
2012,03,03,02,41,0.00
2012,03,03,02,42,0.00
2012,03,03,02,43,0.00
2012,03,03,02,44,0.00
2012,03,03,02,45,0.00
2012,03,03,02,46,0.00
2012,03,03,02,47,0.00
2012,03,03,02,48,0.00
2012,03,03,02,49,0.00
2012,03,03,02,50,0.00
2012,03,03,02,51,0.00
2012,03,03,02,52,0.00
2012,03,03,02,53,0.00
2012,03,03,02,54,0.00
2012,03,03,02,55,0.00
2012,03,03,02,56,0.00
2012,03,03,02,57,0.00
2012,03,03,02,58,0.00
2012,03,03,02,59,0.00
2012,03,03,03,00,0.00
2012,03,03,03,01,0.00
2012,03,03,03,02,0.00
2012,03,03,03,03,0.00
2012,03,03,03,04,0.00
2012,03,03,03,05,0.00
2012,03,03,03,06,0.00
2012,03,03,03,07,0.00
2012,03,03,03,08,0.00
2012,03,03,03,09,0.00
2012,03,03,03,10,0.00
2012,03,03,03,11,0.00
2012,03,03,03,12,0.00
2012,03,03,03,13,0.00
2012,03,03,03,14,0.00
2012,03,03,03,15,0.00
2012,03,03,03,16,0.00
2012,03,03,03,17,0.00
2012,03,03,03,18,0.00
2012,03,03,03,19,0.00
2012,03,03,03,20,0.00
2012,03,03,03,21,0.00
2012,03,03,03,22,0.00
2012,03,03,03,23,0.00
2012,03,03,03,24,0.00
2012,03,03,03,25,0.00
2012,03,03,03,26,0.00
2012,03,03,03,27,0.00
2012,03,03,03,28,0.00
2012,03,03,03,29,0.00
2012,03,03,03,30,0.00
2012,03,03,03,31,0.00
2012,03,03,03,32,0.00
2012,03,03,03,33,0.00
2012,03,03,03,34,0.00
2012,03,03,03,35,0.00
2012,03,03,03,36,0.00
2012,03,03,03,37,0.00
2012,03,03,03,38,0.00
2012,03,03,03,39,0.00
2012,03,03,03,40,0.00
2012,03,03,03,41,0.00
2012,03,03,03,42,0.00
2012,03,03,03,43,0.00
2012,03,03,03,44,0.00
2012,03,03,03,45,0.00
2012,03,03,03,46,0.00
2012,03,03,03,47,0.00
2012,03,03,03,48,0.00
2012,03,03,03,49,0.00
2012,03,03,03,50,0.00
2012,03,03,03,51,0.00
2012,03,03,03,52,0.00
2012,03,03,03,53,0.00
2012,03,03,03,54,0.00
2012,03,03,03,55,0.00
2012,03,03,03,56,0.00
2012,03,03,03,57,0.00
2012,03,03,03,58,0.00
2012,03,03,03,59,0.00
2012,03,03,04,00,0.00
2012,03,03,04,01,0.00
2012,03,03,04,02,0.00
2012,03,03,04,03,0.00
2012,03,03,04,04,0.00
2012,03,03,04,05,0.00
2012,03,03,04,06,0.00
2012,03,03,04,07,0.00
2012,03,03,04,08,0.00
2012,03,03,04,09,0.00
2012,03,03,04,10,0.00
2012,03,03,04,11,0.00
2012,03,03,04,12,0.00
2012,03,03,04,13,0.00
2012,03,03,04,14,0.00
2012,03,03,04,15,0.00
2012,03,03,04,16,0.00
2012,03,03,04,17,0.00
2012,03,03,04,18,0.00
2012,03,03,04,19,0.00
2012,03,03,04,20,0.00
2012,03,03,04,21,0.00
2012,03,03,04,22,0.00
2012,03,03,04,23,0.00
2012,03,03,04,24,0.00
2012,03,03,04,25,0.00
2012,03,03,04,26,0.00
2012,03,03,04,27,0.00
2012,03,03,04,28,0.00
2012,03,03,04,29,0.00
2012,03,03,04,30,0.00
2012,03,03,04,31,0.00
2012,03,03,04,32,0.00
2012,03,03,04,33,0.00
2012,03,03,04,34,0.00
2012,03,03,04,35,0.00
2012,03,03,04,36,0.00
2012,03,03,04,37,0.00
2012,03,03,04,38,0.00
2012,03,03,04,39,0.00
2012,03,03,04,40,0.00
2012,03,03,04,41,0.00
2012,03,03,04,42,0.00
2012,03,03,04,43,0.00
2012,03,03,04,44,0.00
2012,03,03,04,45,0.00
2012,03,03,04,46,0.00
2012,03,03,04,47,0.00
2012,03,03,04,48,0.00
2012,03,03,04,49,0.00
2012,03,03,04,50,0.00
2012,03,03,04,51,0.00
2012,03,03,04,52,0.00
2012,03,03,04,53,0.00
2012,03,03,04,54,0.00
2012,03,03,04,55,0.00
2012,03,03,04,56,0.00
2012,03,03,04,57,0.00
2012,03,03,04,58,0.00
2012,03,03,04,59,0.00
2012,03,03,05,00,0.00
2012,03,03,05,01,0.00
2012,03,03,05,02,0.00
2012,03,03,05,03,0.00
2012,03,03,05,04,0.00
2012,03,03,05,05,0.00
2012,03,03,05,06,0.00
2012,03,03,05,07,0.00
2012,03,03,05,08,0.00
2012,03,03,05,09,0.00
2012,03,03,05,10,0.00
2012,03,03,05,11,0.00
2012,03,03,05,12,0.00
2012,03,03,05,13,0.00
2012,03,03,05,14,0.00
2012,03,03,05,15,0.00
2012,03,03,05,16,0.00
2012,03,03,05,17,0.00
2012,03,03,05,18,0.00
2012,03,03,05,19,0.00
2012,03,03,05,20,0.00
2012,03,03,05,21,0.00
2012,03,03,05,22,0.00
2012,03,03,05,23,0.00
2012,03,03,05,24,0.00
2012,03,03,05,25,0.00
2012,03,03,05,26,0.00
2012,03,03,05,27,0.00
2012,03,03,05,28,0.00
2012,03,03,05,29,0.00
2012,03,03,05,30,0.00
2012,03,03,05,31,0.00
2012,03,03,05,32,0.00
2012,03,03,05,33,0.00
2012,03,03,05,34,0.00
2012,03,03,05,35,0.00
2012,03,03,05,36,0.00
2012,03,03,05,37,0.00
2012,03,03,05,38,0.00
2012,03,03,05,39,0.00
2012,03,03,05,40,0.00
2012,03,03,05,41,0.00
2012,03,03,05,42,0.00
2012,03,03,05,43,0.00
2012,03,03,05,44,0.00
2012,03,03,05,45,0.00
2012,03,03,05,46,0.00
2012,03,03,05,47,0.00
2012,03,03,05,48,0.00
2012,03,03,05,49,0.00
2012,03,03,05,50,0.00
2012,03,03,05,51,0.00
2012,03,03,05,52,0.00
2012,03,03,05,53,0.00
2012,03,03,05,54,0.00
2012,03,03,05,55,0.00
2012,03,03,05,56,0.00
2012,03,03,05,57,0.00
2012,03,03,05,58,0.00
2012,03,03,05,59,0.00
2012,03,03,06,00,0.00
2012,03,03,06,01,0.00
2012,03,03,06,02,0.00
2012,03,03,06,03,0.00
2012,03,03,06,04,0.00
2012,03,03,06,05,0.00
2012,03,03,06,06,0.00
2012,03,03,06,07,0.00
2012,03,03,06,08,0.00
2012,03,03,06,09,0.00
2012,03,03,06,10,0.00
2012,03,03,06,11,0.00
2012,03,03,06,12,0.00
2012,03,03,06,13,0.00
2012,03,03,06,14,0.00
2012,03,03,06,15,0.00
2012,03,03,06,16,0.00
2012,03,03,06,17,0.00
2012,03,03,06,18,0.00
2012,03,03,06,19,0.00
2012,03,03,06,20,0.00
2012,03,03,06,21,0.00
2012,03,03,06,22,0.00
2012,03,03,06,23,0.00
2012,03,03,06,24,0.00
2012,03,03,06,25,0.00
2012,03,03,06,26,0.00
2012,03,03,06,27,0.00
2012,03,03,06,28,0.00
2012,03,03,06,29,0.00
2012,03,03,06,30,0.00
2012,03,03,06,31,0.00
2012,03,03,06,32,0.00
2012,03,03,06,33,0.00
2012,03,03,06,34,0.00
2012,03,03,06,35,0.00
2012,03,03,06,36,0.00
2012,03,03,06,37,0.00
2012,03,03,06,38,0.00
2012,03,03,06,39,0.00
2012,03,03,06,40,0.00
2012,03,03,06,41,0.00
2012,03,03,06,42,0.00
2012,03,03,06,43,0.00
2012,03,03,06,44,0.00
2012,03,03,06,45,0.00
2012,03,03,06,46,0.00
2012,03,03,06,47,0.00
2012,03,03,06,48,0.00
2012,03,03,06,49,0.00
2012,03,03,06,50,0.00
2012,03,03,06,51,0.00
2012,03,03,06,52,0.00
2012,03,03,06,53,0.00
2012,03,03,06,54,0.00
2012,03,03,06,55,0.20
2012,03,03,06,56,5.00
2012,03,03,06,57,5.00
2012,03,03,06,58,5.00
2012,03,03,06,59,5.90
2012,03,03,07,00,7.00
2012,03,03,07,01,7.00
2012,03,03,07,02,7.00
2012,03,03,07,03,7.00
2012,03,03,07,04,7.20
2012,03,03,07,05,9.00
2012,03,03,07,06,9.00
2012,03,03,07,07,9.00
2012,03,03,07,08,9.00
2012,03,03,07,09,9.00
2012,03,03,07,10,9.00
2012,03,03,07,11,9.00
2012,03,03,07,12,9.00
2012,03,03,07,13,9.00
2012,03,03,07,14,9.00
2012,03,03,07,15,9.70
2012,03,03,07,16,11.00
2012,03,03,07,17,11.00
2012,03,03,07,18,11.00
2012,03,03,07,19,11.00
2012,03,03,07,20,11.00
2012,03,03,07,21,11.00
2012,03,03,07,22,11.00
2012,03,03,07,23,11.30
2012,03,03,07,24,12.00
2012,03,03,07,25,12.00
2012,03,03,07,26,13.20
2012,03,03,07,27,14.00
2012,03,03,07,28,15.60
2012,03,03,07,29,16.00
2012,03,03,07,30,16.20
2012,03,03,07,31,18.70
2012,03,03,07,32,21.00
2012,03,03,07,33,21.00
2012,03,03,07,34,21.00
2012,03,03,07,35,21.00
2012,03,03,07,36,21.00
2012,03,03,07,37,21.00
2012,03,03,07,38,21.00
2012,03,03,07,39,21.00
2012,03,03,07,40,21.00
2012,03,03,07,41,21.00
2012,03,03,07,42,21.00
2012,03,03,07,43,21.00
2012,03,03,07,44,21.00
2012,03,03,07,45,22.50
2012,03,03,07,46,23.00
2012,03,03,07,47,23.20
2012,03,03,07,48,25.00
2012,03,03,07,49,25.30
2012,03,03,07,50,26.80
2012,03,03,07,51,28.00
2012,03,03,07,52,29.20
2012,03,03,07,53,30.00
2012,03,03,07,54,30.00
2012,03,03,07,55,30.00
2012,03,03,07,56,30.30
2012,03,03,07,57,32.00
2012,03,03,07,58,32.00
2012,03,03,07,59,32.50
2012,03,03,08,00,33.00
2012,03,03,08,01,34.30
2012,03,03,08,02,35.00
2012,03,03,08,03,36.70
2012,03,03,08,04,37.20
2012,03,03,08,05,39.00
2012,03,03,08,06,38.50
2012,03,03,08,07,38.10
2012,03,03,08,08,40.00
2012,03,03,08,09,40.00
2012,03,03,08,10,40.00
2012,03,03,08,11,41.60
2012,03,03,08,12,42.00
2012,03,03,08,13,40.00
2012,03,03,08,14,39.80
2012,03,03,08,15,39.30
2012,03,03,08,16,40.00
2012,03,03,08,17,40.00
2012,03,03,08,18,41.30
2012,03,03,08,19,43.40
2012,03,03,08,20,45.70
2012,03,03,08,21,47.00
2012,03,03,08,22,47.30
2012,03,03,08,23,49.50
2012,03,03,08,24,52.10
2012,03,03,08,25,54.90
2012,03,03,08,26,56.00
2012,03,03,08,27,56.00
2012,03,03,08,28,54.50
2012,03,03,08,29,54.00
2012,03,03,08,30,53.10
2012,03,03,08,31,54.00
2012,03,03,08,32,54.60
2012,03,03,08,33,55.20
2012,03,03,08,34,52.50
2012,03,03,08,35,52.20
2012,03,03,08,36,50.10
2012,03,03,08,37,50.60
2012,03,03,08,38,55.70
2012,03,03,08,39,61.40
2012,03,03,08,40,70.00
2012,03,03,08,41,67.60
2012,03,03,08,42,64.80
2012,03,03,08,43,68.60
2012,03,03,08,44,71.30
2012,03,03,08,45,73.50
2012,03,03,08,46,74.00
2012,03,03,08,47,76.00
2012,03,03,08,48,77.70
2012,03,03,08,49,81.50
2012,03,03,08,50,84.20
2012,03,03,08,51,88.00
2012,03,03,08,52,90.60
2012,03,03,08,53,91.00
2012,03,03,08,54,94.30
2012,03,03,08,55,95.00
2012,03,03,08,56,94.80
2012,03,03,08,57,93.50
2012,03,03,08,58,95.60
2012,03,03,08,59,97.40
2012,03,03,09,00,99.10
2012,03,03,09,01,102.50
2012,03,03,09,02,104.70
2012,03,03,09,03,105.00
2012,03,03,09,04,110.90
2012,03,03,09,05,114.70
2012,03,03,09,06,118.00
2012,03,03,09,07,118.70
2012,03,03,09,08,119.10
2012,03,03,09,09,119.10
2012,03,03,09,10,120.70
2012,03,03,09,11,122.50
2012,03,03,09,12,124.70
2012,03,03,09,13,130.20
2012,03,03,09,14,132.00
2012,03,03,09,15,132.00
2012,03,03,09,16,132.00
2012,03,03,09,17,131.00
2012,03,03,09,18,128.80
2012,03,03,09,19,125.80
2012,03,03,09,20,123.40
2012,03,03,09,21,121.20
2012,03,03,09,22,121.00
2012,03,03,09,23,120.80
2012,03,03,09,24,120.00
2012,03,03,09,25,120.00
2012,03,03,09,26,120.50
2012,03,03,09,27,121.00
2012,03,03,09,28,124.10
2012,03,03,09,29,126.70
2012,03,03,09,30,128.00
2012,03,03,09,31,128.70
2012,03,03,09,32,132.50
2012,03,03,09,33,135.10
2012,03,03,09,34,138.90
2012,03,03,09,35,141.60
2012,03,03,09,36,144.80
2012,03,03,09,37,146.00
2012,03,03,09,38,146.00
2012,03,03,09,39,145.50
2012,03,03,09,40,141.80
2012,03,03,09,41,139.70
2012,03,03,09,42,136.20
2012,03,03,09,43,134.50
2012,03,03,09,44,131.50
2012,03,03,09,45,130.00
2012,03,03,09,46,128.30
2012,03,03,09,47,123.30
2012,03,03,09,48,125.00
2012,03,03,09,49,124.50
2012,03,03,09,50,121.90
2012,03,03,09,51,119.00
2012,03,03,09,52,122.10
2012,03,03,09,53,127.00
2012,03,03,09,54,127.20
2012,03,03,09,55,127.00
2012,03,03,09,56,128.50
2012,03,03,09,57,134.70
2012,03,03,09,58,137.60
2012,03,03,09,59,140.20
2012,03,03,10,00,145.00
2012,03,03,10,01,148.60
2012,03,03,10,02,150.50
2012,03,03,10,03,151.00
2012,03,03,10,04,150.90
2012,03,03,10,05,148.00
2012,03,03,10,06,148.00
2012,03,03,10,07,148.00
2012,03,03,10,08,148.50
2012,03,03,10,09,148.50
2012,03,03,10,10,148.00
2012,03,03,10,11,148.00
2012,03,03,10,12,146.30
2012,03,03,10,13,146.00
2012,03,03,10,14,146.90
2012,03,03,10,15,152.10
2012,03,03,10,16,157.00
2012,03,03,10,17,160.00
2012,03,03,10,18,161.80
2012,03,03,10,19,163.00
2012,03,03,10,20,164.60
2012,03,03,10,21,166.80
2012,03,03,10,22,169.30
2012,03,03,10,23,171.00
2012,03,03,10,24,171.30
2012,03,03,10,25,172.00
2012,03,03,10,26,172.00
2012,03,03,10,27,173.30
2012,03,03,10,28,174.00
2012,03,03,10,29,175.70
2012,03,03,10,30,174.10
2012,03,03,10,31,173.70
2012,03,03,10,32,171.70
2012,03,03,10,33,171.00
2012,03,03,10,34,170.10
2012,03,03,10,35,169.00
2012,03,03,10,36,170.40
2012,03,03,10,37,173.30
2012,03,03,10,38,178.50
2012,03,03,10,39,188.60
2012,03,03,10,40,195.90
2012,03,03,10,41,200.60
2012,03,03,10,42,201.20
2012,03,03,10,43,198.40
2012,03,03,10,44,193.80
2012,03,03,10,45,187.60
2012,03,03,10,46,181.90
2012,03,03,10,47,178.10
2012,03,03,10,48,174.00
2012,03,03,10,49,174.50
2012,03,03,10,50,176.70
2012,03,03,10,51,179.40
2012,03,03,10,52,182.10
2012,03,03,10,53,185.00
2012,03,03,10,54,187.50
2012,03,03,10,55,189.70
2012,03,03,10,56,192.00
2012,03,03,10,57,192.80
2012,03,03,10,58,192.00
2012,03,03,10,59,190.50
2012,03,03,11,00,188.00
2012,03,03,11,01,186.80
2012,03,03,11,02,186.00
2012,03,03,11,03,187.60
2012,03,03,11,04,189.80
2012,03,03,11,05,190.30
2012,03,03,11,06,192.20
2012,03,03,11,07,193.60
2012,03,03,11,08,195.00
2012,03,03,11,09,195.00
2012,03,03,11,10,195.00
2012,03,03,11,11,196.50
2012,03,03,11,12,199.60
2012,03,03,11,13,204.00
2012,03,03,11,14,207.50
2012,03,03,11,15,212.30
2012,03,03,11,16,217.80
2012,03,03,11,17,222.90
2012,03,03,11,18,229.10
2012,03,03,11,19,234.70
2012,03,03,11,20,239.90
2012,03,03,11,21,247.40
2012,03,03,11,22,253.20
2012,03,03,11,23,255.90
2012,03,03,11,24,261.20
2012,03,03,11,25,264.00
2012,03,03,11,26,264.00
2012,03,03,11,27,258.50
2012,03,03,11,28,257.20
2012,03,03,11,29,255.50
2012,03,03,11,30,257.70
2012,03,03,11,31,257.10
2012,03,03,11,32,257.80
2012,03,03,11,33,254.60
2012,03,03,11,34,250.00
2012,03,03,11,35,247.80
2012,03,03,11,36,235.10
2012,03,03,11,37,238.50
2012,03,03,11,38,236.70
2012,03,03,11,39,236.30
2012,03,03,11,40,238.50
2012,03,03,11,41,232.50
2012,03,03,11,42,229.50
2012,03,03,11,43,244.30
2012,03,03,11,44,249.20
2012,03,03,11,45,258.20
2012,03,03,11,46,247.10
2012,03,03,11,47,266.60
2012,03,03,11,48,242.70
2012,03,03,11,49,261.10
2012,03,03,11,50,265.60
2012,03,03,11,51,263.30
2012,03,03,11,52,243.40
2012,03,03,11,53,241.10
2012,03,03,11,54,254.70
2012,03,03,11,55,251.00
2012,03,03,11,56,253.70
2012,03,03,11,57,275.80
2012,03,03,11,58,296.00
2012,03,03,11,59,308.60
2012,03,03,12,00,307.50
2012,03,03,12,01,300.70
2012,03,03,12,02,281.70
2012,03,03,12,03,270.50
2012,03,03,12,04,298.00
2012,03,03,12,05,268.00
2012,03,03,12,06,256.30
2012,03,03,12,07,248.70
2012,03,03,12,08,255.40
2012,03,03,12,09,270.00
2012,03,03,12,10,297.80
2012,03,03,12,11,345.50
2012,03,03,12,12,391.40
2012,03,03,12,13,401.70
2012,03,03,12,14,460.50
2012,03,03,12,15,457.00
2012,03,03,12,16,457.00
2012,03,03,12,17,454.70
2012,03,03,12,18,452.00
2012,03,03,12,19,452.00
2012,03,03,12,20,452.00
2012,03,03,12,21,586.70
2012,03,03,12,22,608.50
2012,03,03,12,23,614.30
2012,03,03,12,24,581.60
2012,03,03,12,25,554.00
2012,03,03,12,26,554.00
2012,03,03,12,27,554.00
2012,03,03,12,28,508.80
2012,03,03,12,29,489.00
2012,03,03,12,30,489.00
2012,03,03,12,31,680.90
2012,03,03,12,32,673.00
2012,03,03,12,33,667.80
2012,03,03,12,34,643.60
2012,03,03,12,35,659.00
2012,03,03,12,36,659.00
2012,03,03,12,37,619.70
2012,03,03,12,38,629.80
2012,03,03,12,39,646.50
2012,03,03,12,40,647.00
2012,03,03,12,41,649.60
2012,03,03,12,42,643.90
2012,03,03,12,43,631.50
2012,03,03,12,44,640.00
2012,03,03,12,45,652.30
2012,03,03,12,46,656.70
2012,03,03,12,47,636.00
2012,03,03,12,48,633.00
2012,03,03,12,49,631.70
2012,03,03,12,50,636.70
2012,03,03,12,51,661.00
2012,03,03,12,52,661.00
2012,03,03,12,53,661.00
2012,03,03,12,54,661.00
2012,03,03,12,55,672.50
2012,03,03,12,56,657.30
2012,03,03,12,57,650.30
2012,03,03,12,58,666.70
2012,03,03,12,59,656.40
2012,03,03,13,00,649.00
2012,03,03,13,01,641.40
2012,03,03,13,02,638.90
2012,03,03,13,03,672.40
2012,03,03,13,04,648.60
2012,03,03,13,05,632.80
2012,03,03,13,06,626.40
2012,03,03,13,07,631.30
2012,03,03,13,08,638.20
2012,03,03,13,09,633.10
2012,03,03,13,10,629.80
2012,03,03,13,11,631.70
2012,03,03,13,12,642.30
2012,03,03,13,13,558.60
2012,03,03,13,14,592.70
2012,03,03,13,15,583.10
2012,03,03,13,16,577.80
2012,03,03,13,17,572.10
2012,03,03,13,18,572.10
2012,03,03,13,19,575.50
2012,03,03,13,20,574.10
2012,03,03,13,21,568.90
2012,03,03,13,22,574.10
2012,03,03,13,23,563.00
2012,03,03,13,24,563.00
2012,03,03,13,25,564.10
2012,03,03,13,26,531.00
2012,03,03,13,27,530.80
2012,03,03,13,28,561.60
2012,03,03,13,29,561.00
2012,03,03,13,30,555.50
2012,03,03,13,31,562.50
2012,03,03,13,32,556.60
2012,03,03,13,33,554.00
2012,03,03,13,34,552.80
2012,03,03,13,35,554.00
2012,03,03,13,36,551.60
2012,03,03,13,37,548.50
2012,03,03,13,38,549.60
2012,03,03,13,39,548.10
2012,03,03,13,40,547.00
2012,03,03,13,41,547.00
2012,03,03,13,42,547.00
2012,03,03,13,43,546.10
2012,03,03,13,44,543.90
2012,03,03,13,45,541.70
2012,03,03,13,46,540.20
2012,03,03,13,47,538.30
2012,03,03,13,48,539.70
2012,03,03,13,49,535.70
2012,03,03,13,50,534.50
2012,03,03,13,51,535.20
2012,03,03,13,52,533.50
2012,03,03,13,53,531.80
2012,03,03,13,54,532.50
2012,03,03,13,55,535.50
2012,03,03,13,56,533.30
2012,03,03,13,57,533.10
2012,03,03,13,58,533.80
2012,03,03,13,59,534.60
2012,03,03,14,00,536.00
2012,03,03,14,01,533.50
2012,03,03,14,02,520.60
2012,03,03,14,03,521.00
2012,03,03,14,04,535.60
2012,03,03,14,05,485.70
2012,03,03,14,06,403.00
2012,03,03,14,07,373.00
2012,03,03,14,08,337.00
2012,03,03,14,09,264.90
2012,03,03,14,10,282.20
2012,03,03,14,11,273.00
2012,03,03,14,12,253.00
2012,03,03,14,13,230.10
2012,03,03,14,14,214.20
2012,03,03,14,15,218.50
2012,03,03,14,16,230.60
2012,03,03,14,17,227.10
2012,03,03,14,18,205.90
2012,03,03,14,19,185.40
2012,03,03,14,20,174.50
2012,03,03,14,21,172.00
2012,03,03,14,22,183.20
2012,03,03,14,23,198.50
2012,03,03,14,24,193.20
2012,03,03,14,25,184.00
2012,03,03,14,26,179.90
2012,03,03,14,27,190.50
2012,03,03,14,28,193.70
2012,03,03,14,29,200.00
2012,03,03,14,30,205.40
2012,03,03,14,31,213.00
2012,03,03,14,32,207.30
2012,03,03,14,33,214.40
2012,03,03,14,34,212.50
2012,03,03,14,35,205.00
2012,03,03,14,36,196.50
2012,03,03,14,37,187.30
2012,03,03,14,38,175.00
2012,03,03,14,39,180.20
2012,03,03,14,40,180.50
2012,03,03,14,41,218.60
2012,03,03,14,42,306.00
2012,03,03,14,43,336.00
2012,03,03,14,44,241.60
2012,03,03,14,45,153.70
2012,03,03,14,46,149.10
2012,03,03,14,47,154.00
2012,03,03,14,48,155.80
2012,03,03,14,49,152.30
2012,03,03,14,50,146.40
2012,03,03,14,51,142.70
2012,03,03,14,52,143.10
2012,03,03,14,53,142.00
2012,03,03,14,54,143.40
2012,03,03,14,55,149.40
2012,03,03,14,56,154.50
2012,03,03,14,57,156.50
2012,03,03,14,58,162.50
2012,03,03,14,59,167.10
2012,03,03,15,00,178.00
2012,03,03,15,01,199.50
2012,03,03,15,02,261.10
2012,03,03,15,03,319.60
2012,03,03,15,04,325.90
2012,03,03,15,05,332.90
2012,03,03,15,06,329.50
2012,03,03,15,07,331.40
2012,03,03,15,08,298.20
2012,03,03,15,09,337.50
2012,03,03,15,10,355.00
2012,03,03,15,11,465.20
2012,03,03,15,12,522.50
2012,03,03,15,13,514.20
2012,03,03,15,14,503.20
2012,03,03,15,15,497.00
2012,03,03,15,16,493.20
2012,03,03,15,17,481.80
2012,03,03,15,18,470.50
2012,03,03,15,19,468.10
2012,03,03,15,20,469.50
2012,03,03,15,21,464.70
2012,03,03,15,22,457.60
2012,03,03,15,23,451.20
2012,03,03,15,24,441.90
2012,03,03,15,25,436.70
2012,03,03,15,26,432.80
2012,03,03,15,27,428.90
2012,03,03,15,28,422.50
2012,03,03,15,29,416.30
2012,03,03,15,30,411.50
2012,03,03,15,31,344.40
2012,03,03,15,32,405.00
2012,03,03,15,33,396.10
2012,03,03,15,34,386.90
2012,03,03,15,35,384.00
2012,03,03,15,36,325.10
2012,03,03,15,37,265.90
2012,03,03,15,38,218.40
2012,03,03,15,39,207.00
2012,03,03,15,40,339.00
2012,03,03,15,41,339.00
2012,03,03,15,42,337.50
2012,03,03,15,43,338.50
2012,03,03,15,44,308.00
2012,03,03,15,45,305.10
2012,03,03,15,46,324.10
2012,03,03,15,47,316.50
2012,03,03,15,48,317.60
2012,03,03,15,49,314.70
2012,03,03,15,50,312.10
2012,03,03,15,51,308.00
2012,03,03,15,52,305.10
2012,03,03,15,53,302.90
2012,03,03,15,54,300.10
2012,03,03,15,55,297.50
2012,03,03,15,56,295.30
2012,03,03,15,57,294.00
2012,03,03,15,58,293.30
2012,03,03,15,59,290.00
2012,03,03,16,00,284.50
2012,03,03,16,01,277.60
2012,03,03,16,02,278.40
2012,03,03,16,03,275.20
2012,03,03,16,04,272.40
2012,03,03,16,05,267.50
2012,03,03,16,06,266.60
2012,03,03,16,07,263.50
2012,03,03,16,08,260.70
2012,03,03,16,09,258.00
2012,03,03,16,10,255.30
2012,03,03,16,11,251.70
2012,03,03,16,12,242.40
2012,03,03,16,13,246.40
2012,03,03,16,14,243.20
2012,03,03,16,15,242.70
2012,03,03,16,16,220.30
2012,03,03,16,17,189.40
2012,03,03,16,18,230.60
2012,03,03,16,19,226.70
2012,03,03,16,20,197.70
2012,03,03,16,21,201.20
2012,03,03,16,22,212.10
2012,03,03,16,23,194.30
2012,03,03,16,24,205.70
2012,03,03,16,25,187.20
2012,03,03,16,26,176.00
2012,03,03,16,27,187.00
2012,03,03,16,28,151.90
2012,03,03,16,29,177.90
2012,03,03,16,30,181.00
2012,03,03,16,31,178.90
2012,03,03,16,32,175.50
2012,03,03,16,33,171.30
2012,03,03,16,34,168.30
2012,03,03,16,35,167.00
2012,03,03,16,36,164.30
2012,03,03,16,37,159.40
2012,03,03,16,38,155.70
2012,03,03,16,39,153.30
2012,03,03,16,40,148.50
2012,03,03,16,41,138.60
2012,03,03,16,42,128.50
2012,03,03,16,43,133.50
2012,03,03,16,44,138.00
2012,03,03,16,45,135.80
2012,03,03,16,46,132.90
2012,03,03,16,47,132.00
2012,03,03,16,48,107.50
2012,03,03,16,49,117.20
2012,03,03,16,50,125.70
2012,03,03,16,51,127.00
2012,03,03,16,52,123.40
2012,03,03,16,53,120.50
2012,03,03,16,54,120.00
2012,03,03,16,55,117.00
2012,03,03,16,56,113.40
2012,03,03,16,57,109.10
2012,03,03,16,58,106.60
2012,03,03,16,59,103.00
2012,03,03,17,00,99.30
2012,03,03,17,01,97.50
2012,03,03,17,02,94.70
2012,03,03,17,03,91.60
2012,03,03,17,04,90.20
2012,03,03,17,05,88.30
2012,03,03,17,06,85.70
2012,03,03,17,07,82.30
2012,03,03,17,08,78.40
2012,03,03,17,09,76.60
2012,03,03,17,10,74.00
2012,03,03,17,11,70.80
2012,03,03,17,12,69.30
2012,03,03,17,13,65.70
2012,03,03,17,14,63.10
2012,03,03,17,15,61.70
2012,03,03,17,16,59.50
2012,03,03,17,17,56.60